GFSWCAN_2pvu_pres_000.txt.gz
Presure
213 220 212 209 210 202 208 201 207 192 218 235 216 208 206 202 191 189 193 197 199 187 194 184 183 196 195 188 188 192 199 194 198 197 198 199 197 191 191 193 198 197 208 218 218 191 197 194 198 201 187 183 187 176
225 221 216 215 208 203 205 187 205 199 205 219 233 215 213 208 201 200 190 184 192 198 191 194 194 196 199 199 203 192 197 191 196 194 189 192 194 195 197 204 209 224 231 220 187 188 197 197 207 198 179 168 185 187
233 227 214 223 204 216 202 203 203 203 200 205 219 215 222 196 199 200 196 193 198 200 195 194 195 191 196 197 190 188 190 197 201 202 198 199 199 198 213 211 222 223 206 195 212 190 197 206 204 186 193 191 188 183
258 232 223 228 210 218 204 206 199 192 199 202 200 221 219 216 213 205 201 202 202 201 199 199 204 201 202 201 199 199 198 195 198 204 205 208 206 207 208 219 222 194 206 203 200 205 208 190 190 191 189 192 191 206
259 227 224 228 222 216 201 201 207 194 195 195 186 204 200 219 206 203 205 201 212 202 198 200 193 193 192 193 194 192 196 200 198 205 202 206 214 218 210 198 189 196 194 202 213 181 184 191 187 197 197 192 196 202
253 263 225 229 217 210 221 197 211 205 194 195 200 199 200 186 173 213 216 222 195 210 205 204 204 202 203 201 201 201 201 202 205 199 209 215 213 218 230 234 191 200 207 181 185 185 197 199 197 191 205 212 211 202
269 244 257 229 222 231 214 219 206 208 201 195 192 190 196 203 202 188 204 203 201 189 184 183 186 208 205 182 208 208 187 190 183 210 207 208 207 207 201 192 168 184 181 175 191 196 193 202 198 208 205 205 202 203
264 270 253 239 224 233 224 217 214 210 202 205 195 194 194 195 197 187 186 190 194 198 200 201 198 197 200 136 193 192 195 199 211 197 203 205 184 199 182 178 197 192 184 192 189 206 192 190 212 204 198 204 211 212
264 270 266 277 231 230 241 224 224 213 190 203 204 195 195 201 183 189 200 203 203 184 180 191 196 192 192 192 192 198 197 196 202 197 203 202 186 183 189 200 202 200 207 210 192 202 213 211 209 203 208 214 210 219
229 265 244 272 264 263 228 235 226 226 218 195 207 203 201 199 199 198 197 198 195 195 193 193 201 88 188 181 192 198 202 199 189 196 198 178 178 195 190 192 196 200 198 205 209 208 214 212 208 211 209 214 222 223
219 215 246 240 261 261 256 232 236 226 221 221 202 210 197 202 203 208 202 204 192 192 198 198 197 189 198 200 178 196 194 196 191 200 209 205 198 199 204 206 202 204 203 202 203 203 211 210 213 216 217 225 222 227
233 232 216 262 270 244 273 239 253 248 233 228 220 207 206 209 213 210 207 181 208 192 186 187 180 199 186 189 190 194 202 188 204 208 205 198 196 193 190 197 202 208 208 208 212 210 219 224 223 227 229 230 234 244
239 237 228 220 264 241 248 254 237 253 252 240 230 231 215 209 217 212 217 207 205 205 201 205 191 203 204 204 209 209 206 207 208 206 209 208 209 209 208 207 204 211 213 218 221 218 220 232 234 224 237 247 239 252
249 245 245 233 231 218 209 207 237 249 241 247 254 231 228 224 223 227 212 214 208 202 207 208 196 198 198 210 208 205 205 209 208 216 211 209 211 213 217 219 223 224 223 221 222 230 231 227 229 246 248 253 255 258
273 265 259 253 248 253 226 261 226 263 255 241 246 240 242 250 253 227 223 221 219 211 210 208 206 214 204 207 214 210 212 215 217 219 218 219 219 220 221 222 222 222 221 226 237 241 242 252 251 245 256 260 251 253
288 291 280 267 259 252 255 247 264 246 275 260 230 244 257 249 252 250 252 244 233 227 224 219 215 211 215 212 218 217 216 219 216 219 219 213 222 224 227 225 226 234 240 241 251 251 245 247 261 249 246 243 265 267
269 275 282 281 280 274 272 279 229 266 288 238 239 246 275 244 242 245 251 252 251 244 245 238 228 240 239 232 234 240 230 230 230 233 232 238 236 234 235 244 247 264 264 243 253 264 259 238 249 249 264 273 277 284
323 338 270 267 260 266 273 277 276 275 260 277 279 290 238 249 251 245 242 246 247 247 247 254 255 249 247 247 241 238 249 233 242 247 247 268 267 265 239 265 251 249 254 253 254 243 257 253 271 272 273 290 295 317
310 318 323 323 316 297 291 270 264 264 268 273 241 257 277 259 259 249 249 248 255 258 253 246 249 252 254 254 254 232 200 247 259 244 262 260 259 258 234 226 248 251 256 258 258 260 265 270 283 302 317 321 302 331
300 307 309 315 320 326 330 332 318 303 303 266 265 269 268 263 263 268 244 232 260 260 251 245 250 257 250 244 245 251 251 244 247 258 233 223 234 245 247 260 268 273 258 254 263 265 296 325 309 304 314 394 365 412
324 332 310 300 315 317 317 324 325 323 333 320 320 334 272 267 269 268 268 225 222 235 241 264 288 288 227 225 225 236 244 252 257 253 249 254 261 262 268 272 261 259 278 305 311 319 290 313 365 417 407 410 407 400
342 340 350 352 346 338 314 311 326 324 317 315 320 321 320 316 321 321 320 312 310 345 335 297 289 254 260 258 257 283 255 257 265 280 262 299 296 292 292 312 318 319 317 285 305 359 431 410 356 408 404 396 387 372
371 288 349 343 347 351 355 355 357 355 331 332 322 324 325 326 319 314 313 319 321 315 309 303 301 112 299 291 285 284 276 311 217 238 300 331 345 347 299 290 288 352 377 387 386 373 394 394 390 381 380 369 372 377
366 349 351 354 362 363 362 361 370 358 346 347 351 355 355 344 312 315 321 327 331 324 314 308 314 316 271 282 281 225 293 302 306 311 314 316 369 386 401 373 413 411 425 395 380 367 364 363 354 431 428 414 390 391
354 361 345 334 339 339 341 345 347 350 342 343 342 344 346 348 351 350 342 328 310 311 317 327 329 339 348 354 357 356 363 364 360 373 369 400 413 409 414 411 412 406 378 368 361 356 345 352 351 362 448 429 407 395
354 356 378 338 330 327 325 328 330 331 330 332 335 334 335 347 348 343 342 344 351 352 357 357 358 360 367 362 372 378 391 399 399 397 393 399 409 408 397 418 387 366 353 343 335 335 332 340 339 345 369 421 405 409
361 351 345 352 331 323 328 332 333 332 343 338 328 328 348 356 354 348 346 350 345 351 350 350 358 369 381 390 390 390 389 388 389 403 390 383 382 384 402 371 363 347 336 331 325 325 327 333 326 330 335 353 391 409
344 359 332 321 338 331 322 333 327 331 337 344 340 340 339 344 343 341 341 340 344 355 363 378 385 384 384 379 383 379 385 384 372 368 369 375 370 375 366 357 343 333 325 325 321 319 321 330 338 338 330 322 331 370
344 342 343 344 344 339 339 336 335 339 336 333 338 324 322 329 337 349 357 361 371 379 374 386 381 364 372 369 384 375 364 364 367 367 361 360 362 357 354 337 330 327 321 321 321 311 316 332 335 328 323 336 349 316
329 329 327 328 331 326 332 334 331 333 333 333 336 341 346 355 362 376 376 371 370 370 373 376 379 379 376 364 356 363 371 368 362 358 357 353 349 341 330 325 326 319 314 314 319 319 323 325 323 314 329 347 349 358
337 333 333 333 328 323 327 333 340 340 345 352 362 368 370 365 360 357 358 359 361 365 365 361 355 351 353 363 372 379 368 360 357 353 347 341 334 328 323 315 311 317 321 321 320 324 321 345 355 354 348 345 345 347
345 345 345 349 346 347 353 358 366 370 361 349 345 347 352 349 345 344 348 349 355 355 358 363 371 407 410 385 361 352 356 354 348 344 337 332 322 312 314 316 313 308 314 326 298 346 356 355 348 342 339 337 335 334
322 331 339 337 340 340 345 350 355 355 352 352 349 351 357 361 368 377 391 400 400 394 382 355 348 346 347 349 349 350 349 347 343 336 313 311 310 309 310 322 338 358 357 357 312 349 343 338 336 334 193 329 327 324

GFSWCAN_2pvu_pres_003.txt.gz
Presure
234 229 207 215 218 202 215 211 204 219 229 220 204 196 213 193 204 203 186 196 191 193 197 197 196 200 195 187 188 186 188 189 196 196 195 197 195 198 197 198 198 190 195 193 197 204 216 229 220 218 212 230 208 202
234 222 200 217 216 205 213 201 209 200 209 237 207 208 205 190 193 195 203 184 187 191 199 191 183 200 193 181 197 195 189 202 183 189 204 201 201 202 195 202 200 196 203 207 104 206 219 231 219 213 193 206 203 195
224 224 210 216 214 205 212 200 208 196 201 205 229 222 229 203 203 201 201 196 196 189 191 198 195 195 186 185 192 192 197 191 193 191 194 194 200 206 205 197 204 196 217 205 210 145 217 194 207 211 210 196 182 185
228 229 218 203 211 213 208 205 196 201 206 201 206 223 225 234 195 207 200 204 195 191 197 187 191 195 193 194 197 186 190 189 188 198 197 200 197 197 196 203 198 202 206 213 213 224 230 220 207 196 186 188 185 195
228 215 217 207 220 207 213 214 203 206 207 206 199 201 203 225 240 201 204 204 208 202 198 198 199 194 196 196 198 195 196 202 198 195 194 196 196 196 200 196 201 136 210 206 207 203 206 194 174 198 195 189 194 208
239 224 232 215 218 211 207 212 214 204 209 207 203 205 176 221 227 234 213 222 200 217 202 201 203 198 205 198 201 199 196 189 192 199 198 199 200 80 207 187 176 202 200 215 201 195 194 182 182 202 206 202 205 202
236 247 232 232 219 190 217 207 217 215 195 210 204 207 202 204 209 221 226 225 217 225 201 204 196 205 203 171 194 201 198 202 205 205 191 207 206 197 186 184 192 198 210 203 186 193 187 191 199 198 202 202 204 204
241 222 263 227 217 217 223 210 220 208 215 205 206 206 196 201 203 191 194 210 207 221 210 197 185 191 204 206 212 220 219 218 213 209 183 186 198 195 163 192 199 194 187 197 200 187 188 204 206 208 203 203 210 211
232 244 249 248 228 228 215 218 215 215 207 208 208 205 206 202 188 194 197 204 213 204 205 196 200 212 210 209 208 200 204 210 211 200 200 201 198 191 194 195 200 193 200 196 192 202 206 208 199 207 212 209 213 208
262 252 253 251 254 231 228 231 221 221 208 215 220 201 210 208 207 202 191 198 194 189 195 198 200 191 180 188 192 196 190 195 199 201 204 193 186 183 192 197 192 193 195 199 205 206 202 206 213 207 213 213 223 218
256 256 265 239 246 238 252 231 232 231 231 218 211 218 207 201 210 206 205 203 193 195 198 192 192 190 195 200 201 208 208 208 205 204 207 203 193 196 208 185 202 203 211 210 206 209 211 212 212 213 218 220 222 223
242 241 243 244 241 252 257 260 235 229 226 228 219 215 204 211 209 206 206 187 203 207 198 193 196 203 203 198 198 197 200 202 196 202 195 196 196 196 200 203 208 210 209 207 210 213 211 213 219 215 222 222 221 227
233 231 219 224 244 252 251 263 257 271 245 227 224 236 224 217 211 207 206 209 205 198 201 200 201 202 202 207 210 207 207 207 205 207 210 208 213 209 208 207 206 209 211 210 206 210 217 221 223 221 169 233 238 234
231 231 231 219 220 228 246 267 265 264 251 262 278 230 224 232 230 222 221 216 210 206 202 199 201 207 206 204 213 216 215 210 208 207 204 207 210 209 212 208 211 212 219 218 221 223 217 220 233 179 232 238 253 273
232 222 225 228 228 233 216 231 252 254 262 250 273 250 255 272 241 233 232 234 220 216 217 218 215 211 212 218 220 209 214 219 219 219 221 218 218 217 220 224 222 224 223 224 223 224 236 240 243 250 262 256 237 247
257 258 251 234 224 229 230 221 213 214 233 234 239 255 243 262 277 255 258 272 241 236 227 225 234 219 218 216 217 211 210 217 219 224 222 216 223 227 230 231 233 232 232 234 241 249 246 266 277 211 255 249 267 272
259 262 263 261 254 249 238 233 257 264 258 216 242 267 268 253 265 269 272 253 256 262 262 258 258 239 241 236 232 233 231 229 229 231 231 230 231 231 233 236 242 244 250 225 209 267 270 248 265 259 270 269 277 295
296 296 291 282 274 270 270 266 262 254 249 251 234 223 263 239 227 229 225 228 237 243 226 253 253 251 261 258 250 252 254 259 259 257 252 248 255 260 263 204 266 267 269 271 271 262 258 252 264 272 267 291 300 295
273 270 277 280 282 285 292 288 288 288 290 290 273 266 255 235 244 240 225 241 269 266 239 249 304 278 263 250 252 255 256 257 261 256 257 258 260 265 248 276 277 267 240 268 299 293 275 272 273 289 291 280 292 291
318 318 316 323 325 312 281 279 273 277 287 287 289 292 290 287 273 264 261 266 270 251 284 283 285 267 276 255 277 289 280 263 259 258 249 273 266 264 277 261 250 266 269 281 285 280 279 273 279 288 288 300 295 344
311 313 319 316 315 310 314 323 324 320 336 333 279 290 283 283 280 276 278 284 280 276 261 234 270 267 267 267 265 270 274 279 280 280 277 261 254 240 259 251 267 272 280 282 278 277 321 350 298 295 300 317 401 381
303 308 311 313 317 316 319 323 311 314 320 321 326 329 329 334 332 337 282 334 324 265 265 262 261 265 269 263 260 263 266 266 264 266 271 274 130 284 338 336 326 314 301 309 324 302 307 320 426 410 366 396 378 366
313 321 321 321 327 326 332 332 332 328 317 318 320 321 322 322 324 326 323 324 329 333 332 326 319 313 315 315 322 324 321 319 322 324 329 327 330 326 319 311 316 339 319 318 388 393 381 415 419 424 388 372 354 346
351 360 369 369 371 370 372 367 363 357 358 357 357 357 351 344 338 340 338 308 314 331 325 325 324 322 327 332 334 334 327 329 327 330 335 333 346 349 351 356 348 347 373 391 414 414 408 409 409 380 366 350 342 335
394 459 408 414 412 401 401 393 379 365 355 353 359 352 371 368 362 362 356 353 348 347 353 356 357 358 355 357 355 358 350 334 329 329 338 337 347 382 398 364 403 411 405 400 394 391 391 391 372 361 346 341 333 327
437 475 458 434 376 387 382 358 355 355 355 351 349 348 346 349 348 345 346 342 342 343 342 344 346 350 351 352 354 359 362 362 360 359 371 373 389 395 400 405 397 383 380 380 378 379 384 364 356 343 337 329 327 325
404 394 397 387 387 367 367 367 347 334 328 328 325 327 327 329 329 332 335 337 338 342 342 346 344 348 358 360 365 363 360 375 390 394 383 383 379 386 388 378 376 377 378 373 366 367 362 357 347 337 329 326 320 322
385 386 359 351 350 350 341 362 356 340 334 327 322 320 322 322 325 340 345 345 343 341 340 342 345 348 356 374 380 378 377 375 373 372 370 378 383 371 366 367 376 380 376 371 366 359 358 350 333 331 327 314 318 318
346 339 340 339 340 334 333 268 340 339 326 321 326 332 332 337 340 337 340 338 335 333 340 349 360 374 373 369 371 373 377 380 383 377 370 360 354 354 375 384 382 370 367 363 361 357 345 336 331 313 313 318 314 312
339 336 338 342 339 337 335 336 335 336 337 334 337 343 344 335 334 335 337 342 345 357 367 376 372 363 364 364 366 366 361 359 359 365 376 390 408 385 371 366 364 361 357 354 349 342 330 323 322 317 311 315 321 326
333 334 336 336 336 335 335 335 336 336 334 327 325 327 329 332 333 341 346 358 369 370 368 362 358 358 363 371 378 384 391 401 400 369 351 352 356 356 357 357 357 355 350 330 321 319 318 322 326 331 335 339 347 351
315 319 319 328 327 333 335 339 338 338 338 343 344 340 344 366 374 383 366 364 363 361 364 369 375 380 372 347 339 338 339 340 341 341 342 345 346 347 347 349 350 350 350 352 353 357 359 359 360 358 159 342 167 358
351 346 348 348 347 349 345 350 359 367 366 368 364 359 357 354 346 349 357 362 363 363 355 341 335 335 336 337 337 341 321 361 370 365 355 342 341 345 350 358 358 361 377 432 627 600 581 566 577 145 147 499 282 484

GFSWCAN_2pvu_pres_006.txt.gz
Presure
276 265 241 241 227 219 214 209 216 203 232 228 235 219 199 203 213 193 205 195 199 189 200 198 188 210 205 204 184 215 218 212 202 194 196 193 182 185 192 189 192 196 196 198 202 204 200 206 200 212 202 205 211 211
253 248 243 236 221 219 214 206 213 213 227 225 219 238 200 205 204 213 200 201 196 188 195 189 202 198 190 186 190 202 212 211 192 187 183 196 191 199 187 194 198 193 203 203 195 197 208 209 208 201 213 213 212 223
234 244 231 236 223 218 213 208 209 206 216 227 224 234 224 206 190 210 202 202 190 187 200 188 191 191 199 197 196 198 193 193 190 193 196 189 189 191 196 185 192 189 197 201 200 195 199 206 209 219 211 216 216 201
240 233 237 231 223 216 209 215 205 209 237 215 223 221 239 219 201 206 193 203 197 201 197 177 189 192 192 198 191 194 191 189 195 192 191 195 189 194 187 196 150 147 198 192 204 211 210 209 197 208 200 202 196 191
237 231 234 231 220 216 213 215 206 212 218 217 220 218 221 229 215 201 213 201 194 199 201 198 199 180 186 185 190 192 195 199 195 195 195 196 197 195 183 189 182 188 135 214 214 212 206 185 209 199 204 200 200 204
236 228 239 229 219 214 215 217 208 205 213 210 235 205 220 216 192 203 212 215 203 166 190 207 190 202 204 194 195 191 194 189 191 201 196 197 198 198 188 186 122 175 215 201 213 205 202 200 203 198 199 198 194 201
238 235 237 237 226 216 214 223 213 203 211 213 209 207 194 236 228 215 208 188 202 202 199 199 204 188 189 196 197 86 199 200 196 196 195 202 200 200 201 189 116 138 210 211 199 202 201 198 197 203 198 192 206 205
241 246 235 241 211 221 210 210 222 212 206 214 208 211 206 205 198 211 235 235 212 229 226 215 210 214 204 199 209 209 208 185 203 208 210 206 205 205 193 209 222 205 196 199 201 200 196 191 198 191 209 203 207 209
249 244 226 243 234 227 215 219 210 222 217 206 209 207 203 203 211 208 204 207 199 190 223 233 231 221 211 213 217 207 212 210 215 229 225 226 206 220 212 210 207 206 200 199 197 191 198 194 205 203 205 209 215 207
232 247 231 242 237 223 207 208 218 218 215 205 203 208 212 209 203 210 207 206 208 205 202 192 215 224 222 223 225 225 225 220 218 220 228 229 213 199 205 198 192 194 198 204 207 207 201 200 201 210 219 208 210 212
261 239 242 257 233 235 230 226 212 213 218 217 214 204 202 204 214 211 204 200 207 204 209 195 199 193 199 202 210 214 215 209 207 209 209 199 190 190 197 204 204 197 200 206 204 201 210 211 212 211 211 212 225 221
252 265 240 259 241 234 221 227 233 225 213 207 214 214 218 216 216 210 211 203 207 204 199 200 206 205 199 194 197 196 196 198 195 198 198 197 201 204 202 202 202 205 205 207 211 210 210 214 211 219 225 222 222 224
251 254 256 252 246 248 247 226 216 214 229 228 222 211 209 211 210 222 220 215 208 210 212 204 197 209 211 210 208 208 207 207 211 211 172 206 206 206 206 209 208 207 211 212 211 215 220 223 226 218 222 226 233 230
254 261 259 257 255 259 265 231 242 242 239 204 216 218 217 219 226 226 217 223 216 222 210 208 217 214 209 208 209 209 210 211 208 210 206 208 210 209 212 214 213 212 219 222 220 222 222 222 234 237 234 233 236 255
239 237 231 232 225 242 242 243 241 266 240 240 247 246 232 229 237 253 235 228 225 242 228 227 220 221 215 213 218 209 212 217 218 218 217 217 213 213 223 226 225 225 223 222 230 236 230 237 241 262 192 260 269 227
250 248 253 252 235 222 247 228 237 233 237 255 240 251 248 256 271 251 252 267 240 236 233 232 231 229 226 220 221 228 227 226 227 227 226 225 226 225 225 232 237 242 244 238 256 252 261 261 266 271 275 263 258 255
249 246 241 250 231 247 241 257 241 211 214 243 230 235 236 243 252 266 280 268 268 266 258 258 266 267 257 258 234 230 230 231 233 235 234 254 261 249 261 265 264 268 264 263 263 261 275 274 294 280 276 289 273 282
254 249 253 253 253 252 252 254 240 252 239 241 236 215 226 248 241 257 263 247 253 223 260 268 244 274 280 258 257 262 274 269 261 258 259 262 262 258 255 259 303 307 305 299 299 248 294 277 292 265 277 280 277 307
249 254 260 244 249 255 251 251 257 255 258 253 252 238 227 240 249 228 221 219 219 222 222 217 232 238 246 272 277 273 235 233 251 232 232 254 284 300 266 276 292 288 283 275 284 277 267 277 277 275 286 316 313 308
263 266 255 253 259 257 253 250 259 260 263 264 257 263 255 259 261 268 273 266 269 253 300 262 263 271 252 242 241 252 256 273 268 248 247 257 265 278 284 275 273 275 274 274 271 264 266 293 318 319 308 378 334 321
283 282 285 248 257 266 272 278 294 308 309 312 300 309 281 285 303 302 295 289 291 297 286 287 284 284 296 293 296 287 277 271 279 280 272 277 280 276 271 268 268 270 266 265 264 316 315 312 314 317 313 306 326 373
310 312 316 327 287 286 287 280 287 308 269 291 287 283 280 280 294 294 278 271 270 273 274 272 273 276 280 282 285 285 283 277 275 272 268 269 280 278 271 281 318 317 317 318 322 321 319 312 345 381 385 402 408 406
305 305 308 306 307 308 309 312 315 319 319 321 321 323 325 326 328 328 325 324 326 328 326 326 326 327 327 223 327 329 327 327 326 326 325 324 325 325 325 327 331 333 334 339 370 381 381 382 387 403 398 393 392 387
313 314 317 316 319 318 316 312 318 314 312 313 319 321 324 326 328 327 328 334 334 333 343 344 341 336 329 326 322 322 319 319 332 343 348 354 355 364 368 369 371 368 372 374 382 387 391 401 393 387 384 382 378 377
327 322 325 325 329 331 332 334 341 347 350 344 342 356 371 369 365 362 357 352 353 352 356 363 369 365 361 359 358 356 128 349 349 349 351 352 358 360 366 373 381 381 396 392 390 385 392 384 380 377 377 379 376 365
382 416 421 444 426 477 463 465 464 439 419 419 422 407 386 373 368 364 361 359 360 363 361 356 352 351 352 346 344 345 344 343 346 351 354 348 361 385 386 387 386 383 384 390 395 397 381 371 367 374 380 375 371 364
443 437 428 421 411 410 416 425 424 383 372 383 368 359 354 353 352 348 344 340 336 334 335 333 332 332 330 331 331 333 330 330 332 348 383 388 380 377 376 377 380 380 377 370 364 362 377 398 394 383 374 367 362 358
391 394 386 384 383 379 381 382 375 363 371 362 367 355 349 343 334 331 327 324 323 323 321 320 330 346 352 351 348 346 344 360 388 384 372 368 367 369 374 377 381 386 393 406 410 380 369 366 367 367 363 359 355 351
369 362 361 367 362 360 360 355 351 349 347 351 347 346 346 347 332 333 330 328 346 341 344 346 342 336 336 341 351 361 372 372 365 366 367 378 388 394 392 371 361 355 352 352 357 359 356 357 356 354 352 351 346 338
350 346 343 342 341 341 340 345 347 345 345 343 342 344 343 341 338 340 341 345 350 347 340 339 342 349 359 373 387 375 368 367 375 380 373 350 343 343 342 344 346 353 358 364 360 355 356 354 355 357 360 364 366 367
335 335 338 342 343 342 340 341 342 341 340 342 342 343 341 343 336 339 333 332 340 346 354 362 375 387 369 360 361 371 372 359 343 338 339 338 337 344 357 364 362 334 330 340 352 356 356 425 430 404 392 427 502 565
322 329 331 329 325 326 328 329 329 327 328 330 335 339 345 348 350 355 361 365 378 385 366 357 354 358 362 357 342 335 334 336 335 338 327 338 359 325 328 356 361 357 354 353 432 418 389 367 360 360 373 189 245 559
338 340 347 350 353 353 352 355 356 355 354 358 351 339 348 353 358 361 360 359 351 349 356 367 365 333 331 336 339 341 347 346 335 321 331 363 359 352 349 371 453 433 418 396 373 360 351 351 356 356 355 410 550 557

GFSWCAN_2pvu_pres_012.txt.gz
Presure
252 256 254 255 263 245 246 242 246 239 238 227 227 217 239 222 220 211 206 203 201 201 199 198 197 189 197 194 186 201 189 194 201 205 205 198 197 201 199 199 200 201 197 192 195 192 191 186 198 189 198 194 191 196
255 236 244 248 244 247 229 262 243 241 229 227 219 219 195 223 223 207 213 204 181 200 200 174 195 190 193 199 192 189 188 193 193 191 202 213 203 189 208 209 209 210 210 207 207 201 197 200 198 192 196 193 195 195
242 231 241 250 246 240 246 260 239 235 228 225 217 225 205 218 224 200 217 203 202 207 201 200 179 190 194 194 197 193 192 190 198 190 185 208 194 192 186 181 207 214 214 208 193 195 202 192 194 191 194 196 190 191
237 230 241 240 244 247 280 244 238 228 226 220 216 224 222 227 220 195 210 210 215 199 204 194 195 186 189 192 197 189 190 191 189 189 191 200 200 200 190 191 190 195 199 163 135 196 196 189 192 195 186 191 195 199
242 234 242 246 242 281 258 233 235 229 221 220 217 208 194 230 222 203 203 216 204 202 209 203 202 201 186 194 194 193 192 189 189 195 202 200 200 202 190 191 141 96 175 188 186 180 191 198 192 191 192 203 209 206
249 238 249 246 267 256 234 238 232 227 219 224 212 212 193 232 219 216 204 198 200 203 202 196 193 194 203 201 195 184 187 196 194 187 182 181 193 184 189 192 182 195 200 203 200 199 199 197 199 201 201 211 216 229
244 239 242 276 249 239 239 232 228 224 217 209 222 206 240 203 220 218 213 201 198 198 206 209 200 194 190 192 191 195 205 203 199 199 198 200 195 192 193 195 164 197 198 202 206 205 203 206 218 211 215 224 216 213
238 242 235 285 225 238 240 233 226 223 218 207 206 217 240 227 230 222 216 214 212 205 205 207 204 205 206 200 193 208 208 206 198 194 196 199 199 196 183 154 194 197 175 204 211 214 219 220 215 226 221 209 194 201
244 264 240 256 222 246 231 237 226 221 218 216 208 212 212 206 235 200 227 222 211 194 199 209 200 199 202 203 205 204 202 204 205 209 187 187 184 193 203 206 202 210 220 235 236 233 227 209 202 195 197 200 201 204
269 257 272 271 238 236 235 232 235 217 218 219 214 210 208 243 205 237 227 223 223 231 235 228 215 205 201 207 205 210 212 189 189 195 198 207 205 210 156 221 223 213 205 202 201 199 197 200 202 203 203 209 214 212
263 264 272 258 250 235 238 232 231 236 219 217 221 214 207 207 211 203 205 216 228 213 204 222 225 230 224 212 203 210 204 219 220 221 215 220 216 210 166 206 206 206 205 205 207 206 203 204 208 215 216 220 225 226
260 258 254 255 222 231 237 228 237 235 236 221 214 208 214 213 210 211 209 209 204 218 221 219 225 219 223 234 236 224 227 226 211 195 204 197 201 203 205 202 207 203 203 214 217 220 221 218 222 224 226 228 226 232
259 255 251 248 244 231 246 229 235 230 223 228 222 220 215 211 209 210 213 207 203 199 202 201 207 209 209 208 206 208 209 208 210 209 206 206 207 203 215 219 215 217 216 214 215 224 230 231 237 240 239 243 247 239
237 256 247 242 252 232 250 238 229 232 235 230 221 226 225 223 220 220 214 212 214 212 210 209 209 209 209 210 210 206 204 207 212 214 215 218 222 222 212 214 221 226 226 229 234 228 235 243 246 247 252 263 269 265
262 244 243 249 247 243 244 247 251 234 230 232 237 239 226 225 223 222 218 208 207 207 208 208 209 212 215 216 215 214 215 216 211 208 210 219 222 224 227 226 226 232 237 241 250 253 259 264 257 250 245 234 246 242
246 228 245 247 256 253 251 246 235 238 240 237 225 226 210 227 233 233 232 225 230 229 223 215 216 220 222 224 225 223 228 231 232 225 225 227 234 235 234 238 243 253 257 262 218 273 259 241 239 244 238 240 253 280
240 250 238 228 230 231 243 240 247 247 245 244 236 230 227 238 241 242 240 233 232 230 230 233 234 232 230 224 218 231 229 222 232 234 237 241 248 257 259 255 245 258 256 238 238 237 241 241 246 286 284 290 292 289
243 239 248 252 237 254 233 235 223 219 231 230 230 246 245 242 226 219 239 240 241 240 217 219 240 238 242 242 250 237 236 237 245 278 248 257 249 254 258 261 237 237 237 241 241 302 319 290 287 282 293 343 340 339
234 237 242 225 225 249 251 254 256 247 243 241 238 241 237 234 234 235 234 243 242 238 240 241 249 258 271 256 252 251 257 257 252 259 247 230 233 235 236 257 267 278 276 273 258 271 272 311 336 332 329 328 327 325
242 244 242 244 250 247 246 232 246 246 240 258 241 239 237 240 261 262 252 252 256 254 252 258 256 254 252 264 273 235 225 230 231 246 239 244 261 283 275 265 255 304 316 335 338 330 331 327 325 331 334 342 353 363
252 239 256 262 256 250 253 255 252 233 241 252 253 249 248 243 252 258 252 254 233 253 247 250 259 259 221 265 253 259 266 266 264 273 271 303 334 326 327 330 329 280 304 338 341 343 347 354 356 356 359 367 368 363
256 257 251 248 251 245 250 248 254 249 255 264 262 266 266 263 261 259 259 257 260 261 257 260 262 262 265 263 267 264 267 271 278 340 308 272 271 298 324 339 366 363 360 360 355 355 359 367 368 366 358 358 362 394
263 260 255 262 257 268 266 267 254 259 259 252 256 260 256 256 255 252 261 258 260 262 266 269 272 287 288 272 264 272 276 309 320 318 313 303 330 362 365 363 362 361 364 367 364 359 348 346 347 355 367 390 399 384
320 279 260 261 261 274 265 266 265 263 263 273 260 264 267 272 278 280 278 257 282 268 270 290 310 317 329 330 289 293 309 324 330 318 346 371 367 368 375 370 367 354 347 339 339 338 344 354 357 393 391 384 392 386
307 316 312 318 278 278 279 278 279 278 306 279 281 283 282 325 323 272 274 277 282 316 319 307 296 319 325 330 327 321 319 362 380 379 379 375 373 363 358 348 335 334 341 337 348 351 356 386 385 376 386 371 353 346
305 308 307 314 313 313 317 317 319 318 320 321 322 326 326 328 326 327 340 350 341 333 330 334 336 354 359 381 388 391 387 384 377 369 364 359 353 340 338 342 338 335 361 352 358 386 381 373 376 358 345 344 344 346
318 324 328 324 316 332 343 349 356 411 467 461 462 463 454 469 491 456 446 431 447 414 400 405 406 402 396 394 387 373 367 357 354 348 347 346 346 347 344 351 357 352 367 388 374 371 369 350 340 341 347 368 370 368
345 343 347 358 359 423 433 426 415 412 410 405 404 402 405 408 416 419 409 403 399 393 381 374 368 365 360 359 353 350 354 351 354 350 347 349 352 354 354 367 382 376 362 368 362 341 337 346 362 348 373 361 356 439
400 408 399 394 393 396 395 389 383 381 378 379 379 376 375 375 373 375 373 367 367 366 363 359 358 353 357 359 356 351 348 352 354 344 349 355 368 372 368 358 360 368 348 335 342 350 336 369 372 358 375 434 412 386
368 365 365 361 357 358 357 354 355 353 353 354 354 354 353 353 352 352 354 355 353 351 351 349 348 346 345 349 353 354 352 356 363 371 372 371 367 357 365 346 338 333 347 343 319 317 371 359 363 430 408 383 364 352
349 345 345 342 341 343 342 344 343 344 343 343 345 346 346 347 346 345 346 349 349 351 350 350 350 353 359 363 368 369 374 368 361 351 355 359 352 337 357 343 380 368 335 369 365 363 352 391 408 386 365 349 345 345
341 338 337 340 341 342 342 339 338 340 343 339 339 347 358 362 365 366 367 366 365 365 366 368 367 365 362 359 352 351 356 366 354 349 364 411 411 399 385 302 303 375 348 371 364 347 383 399 378 357 346 339 342 339
348 350 356 363 366 369 368 365 369 367 365 357 351 370 372 369 365 361 361 359 354 350 349 349 354 365 363 360 356 364 380 379 381 391 390 385 377 305 300 323 370 366 377 361 346 349 406 386 360 345 336 341 338 331